User: anonymous   Login
Location: Unspecified
(0.0000°N, 0.0000°E)
Time: 10:19:45
(UTC+00:00)
Language:

Gonets-D1 - Orbit

View from above orbital plane
View from above orbital plane
View from above satellite
View from above satellite

Ground track
Ground track

The orbit data is extracted from the following two-line orbital elements,

1 23787U 96009A   17080.88002119 +.00000047 +00000-0 +19620-3 0  9998
2 23787 082.5754 299.4111 0010888 146.2754 213.9027 12.64030184972989
Epoch (UTC): 21 March 2017 21:07:13
Eccentricity: 0.0010888
inclination: 82.5754°
perigee height: 1398 km
apogee height: 1415 km
right ascension of ascending node: 299.4111°
argument of perigee: 146.2754°
revolutions per day: 12.64030184
mean anomaly at epoch: 213.9027°
orbit number at epoch: 97298

The dashed part of the orbit path shows where the satellite is in the earth's shadow,  

DLR